Stündliche Wetter Abaete

Heute, 4 März, Donnerstag

Zeit Temperatur Niederschläge Wind Luftdruck Luftfeuchtigkeit
00:00 +22°C° 0 mm 1 m/S 708 mmHg 86%
01:00 +20°C° 0 mm 0 m/S 708 mmHg 87%
02:00 +19°C° 0 mm 0 m/S 708 mmHg 89%
03:00 +19°C° 0 mm 0 m/S 707 mmHg 89%
04:00 +19°C° 0 mm 0 m/S 707 mmHg 90%
05:00 +18°C° 0 mm 0 m/S 708 mmHg 92%
06:00 +18°C° 0 mm 0 m/S 708 mmHg 93%
07:00 +20°C° 0 mm 0 m/S 708 mmHg 87%
08:00 +24°C° 0 mm 1 m/S 709 mmHg 81%
09:00 +26°C° 0 mm 1 m/S 709 mmHg 74%
10:00 +27°C° 0 mm 2 m/S 709 mmHg 69%
11:00 +28°C° 0 mm 2 m/S 709 mmHg 64%
12:00 +29°C° 0 mm 2 m/S 709 mmHg 59%
13:00 +29°C° 0 mm 2 m/S 708 mmHg 58%
14:00 +30°C° 0 mm 2 m/S 708 mmHg 57%
15:00 +30°C° 0 mm 2 m/S 707 mmHg 56%
16:00 +29°C° 0 mm 2 m/S 706 mmHg 61%
17:00 +27°C° 0 mm 2 m/S 706 mmHg 67%
18:00 +26°C° 0 mm 1 m/S 705 mmHg 72%
19:00 +25°C° 0 mm 1 m/S 706 mmHg 73%
20:00 +24°C° 0 mm 1 m/S 706 mmHg 74%
21:00 +23°C° 0 mm 1 m/S 706 mmHg 75%
22:00 +23°C° 0 mm 1 m/S 706 mmHg 76%
23:00 +23°C° 0 mm 1 m/S 706 mmHg 78%

Morgen, 5 März, Freitag

Zeit Temperatur Niederschläge Wind Luftdruck Luftfeuchtigkeit
00:00 +22°C° 0 mm 1 m/S 706 mmHg 79%
01:00 +20°C° 0 mm 0 m/S 706 mmHg 81%
02:00 +19°C° 0 mm 0 m/S 705 mmHg 83%
03:00 +19°C° 0 mm 0 m/S 705 mmHg 86%
04:00 +21°C° 0 mm 1 m/S 705 mmHg 86%
05:00 +21°C° 0 mm 1 m/S 705 mmHg 87%
06:00 +21°C° 0 mm 1 m/S 705 mmHg 88%
07:00 +22°C° 0 mm 1 m/S 706 mmHg 82%
08:00 +24°C° 0 mm 1 m/S 706 mmHg 77%
09:00 +26°C° 0 mm 2 m/S 707 mmHg 71%
10:00 +27°C° 0 mm 2 m/S 707 mmHg 66%
11:00 +29°C° 0 mm 3 m/S 706 mmHg 61%
12:00 +30°C° 0 mm 3 m/S 706 mmHg 56%
13:00 +31°C° 0 mm 3 m/S 706 mmHg 56%
14:00 +31°C° 0 mm 3 m/S 705 mmHg 56%
15:00 +31°C° 0 mm 3 m/S 704 mmHg 56%
16:00 +30°C° 0.3 mm 2 m/S 704 mmHg 63%
17:00 +28°C° 0.3 mm 2 m/S 704 mmHg 71%
18:00 +27°C° 0.3 mm 1 m/S 703 mmHg 78%
19:00 +26°C° 1.2 mm 1 m/S 704 mmHg 81%
20:00 +25°C° 1.2 mm 1 m/S 704 mmHg 85%
21:00 +24°C° 1.2 mm 2 m/S 705 mmHg 88%
22:00 +24°C° 0.6 mm 2 m/S 705 mmHg 89%
23:00 +23°C° 0.6 mm 2 m/S 705 mmHg 90%

übermorgen, 6 März, Samstag

Zeit Temperatur Niederschläge Wind Luftdruck Luftfeuchtigkeit
00:00 +23°C° 0.6 mm 2 m/S 705 mmHg 91%
01:00 +23°C° 0.1 mm 1 m/S 705 mmHg 91%
02:00 +23°C° 0.1 mm 1 m/S 704 mmHg 91%
03:00 +23°C° 0.1 mm 1 m/S 704 mmHg 91%
04:00 +22°C° 0 mm 1 m/S 704 mmHg 91%
05:00 +22°C° 0 mm 1 m/S 704 mmHg 91%
06:00 +22°C° 0 mm 1 m/S 705 mmHg 91%
07:00 +24°C° 0.2 mm 1 m/S 705 mmHg 88%
08:00 +25°C° 0.2 mm 2 m/S 706 mmHg 85%
09:00 +26°C° 0.2 mm 2 m/S 706 mmHg 81%
10:00 +27°C° 1.2 mm 2 m/S 706 mmHg 78%
11:00 +28°C° 1.2 mm 3 m/S 706 mmHg 74%
12:00 +30°C° 1.2 mm 3 m/S 706 mmHg 70%
13:00 +30°C° 1.1 mm 3 m/S 705 mmHg 70%
14:00 +30°C° 1.1 mm 3 m/S 705 mmHg 70%
15:00 +30°C° 1.1 mm 3 m/S 704 mmHg 70%
16:00 +29°C° 1 mm 3 m/S 704 mmHg 74%
17:00 +27°C° 1 mm 3 m/S 704 mmHg 79%
18:00 +26°C° 1 mm 2 m/S 704 mmHg 84%
19:00 +26°C° 0.7 mm 2 m/S 704 mmHg 85%
20:00 +25°C° 0.7 mm 2 m/S 705 mmHg 86%
21:00 +25°C° 0.7 mm 1 m/S 705 mmHg 87%
22:00 +24°C° 0.4 mm 1 m/S 705 mmHg 88%
23:00 +24°C° 0.4 mm 1 m/S 705 mmHg 89%

7 März, Sonntag

Zeit Temperatur Niederschläge Wind Luftdruck Luftfeuchtigkeit
00:00 +23°C° 0.4 mm 1 m/S 705 mmHg 90%
01:00 +23°C° 0.2 mm 1 m/S 705 mmHg 90%
02:00 +23°C° 0.2 mm 1 m/S 705 mmHg 90%
03:00 +22°C° 0.2 mm 1 m/S 705 mmHg 90%
04:00 +22°C° 0.1 mm 1 m/S 705 mmHg 91%
05:00 +20°C° 0.1 mm 0 m/S 705 mmHg 91%
06:00 +20°C° 0.1 mm 0 m/S 705 mmHg 92%
07:00 +21°C° 0.2 mm 0 m/S 706 mmHg 89%
08:00 +22°C° 0.2 mm 0 m/S 706 mmHg 87%
09:00 +25°C° 0.2 mm 1 m/S 707 mmHg 84%
10:00 +27°C° 1 mm 1 m/S 707 mmHg 80%
11:00 +28°C° 1 mm 1 m/S 706 mmHg 76%
12:00 +29°C° 1 mm 1 m/S 706 mmHg 72%
13:00 +29°C° 1 mm 2 m/S 706 mmHg 73%
14:00 +29°C° 1 mm 3 m/S 705 mmHg 73%
15:00 +29°C° 1 mm 3 m/S 705 mmHg 74%
16:00 +28°C° 1.5 mm 3 m/S 705 mmHg 79%
17:00 +26°C° 1.5 mm 2 m/S 705 mmHg 83%
18:00 +25°C° 1.5 mm 2 m/S 705 mmHg 87%
19:00 +24°C° 0.8 mm 2 m/S 705 mmHg 89%
20:00 +24°C° 0.8 mm 2 m/S 706 mmHg 90%
21:00 +23°C° 0.8 mm 1 m/S 706 mmHg 91%
22:00 +23°C° 0.5 mm 1 m/S 706 mmHg 92%
23:00 +23°C° 0.5 mm 1 m/S 706 mmHg 93%

8 März, Montag

Zeit Temperatur Niederschläge Wind Luftdruck Luftfeuchtigkeit
00:00 +22°C° 0.5 mm 1 m/S 707 mmHg 94%
01:00 +22°C° 1.3 mm 1 m/S 706 mmHg 95%
02:00 +22°C° 1.3 mm 1 m/S 706 mmHg 96%
03:00 +22°C° 1.3 mm 1 m/S 706 mmHg 97%
04:00 +22°C° 0.8 mm 1 m/S 706 mmHg 97%
05:00 +22°C° 0.8 mm 1 m/S 706 mmHg 97%
06:00 +22°C° 0.8 mm 1 m/S 706 mmHg 97%
07:00 +22°C° 0.2 mm 1 m/S 706 mmHg 95%
08:00 +21°C° 0.2 mm 0 m/S 707 mmHg 93%
09:00 +21°C° 0.2 mm 0 m/S 707 mmHg 91%
10:00 +25°C° 0.6 mm 1 m/S 707 mmHg 85%
11:00 +27°C° 0.6 mm 1 m/S 707 mmHg 79%
12:00 +29°C° 0.6 mm 1 m/S 707 mmHg 73%
13:00 +29°C° 1.5 mm 1 m/S 706 mmHg 74%
14:00 +29°C° 1.5 mm 2 m/S 705 mmHg 75%
15:00 +28°C° 1.5 mm 2 m/S 705 mmHg 76%
16:00 +27°C° 1.9 mm 2 m/S 705 mmHg 81%
17:00 +26°C° 1.9 mm 2 m/S 704 mmHg 85%
18:00 +25°C° 1.9 mm 1 m/S 704 mmHg 89%
19:00 +24°C° 0.5 mm 1 m/S 705 mmHg 89%
20:00 +24°C° 0.5 mm 1 m/S 705 mmHg 89%
21:00 +22°C° 0.5 mm 0 m/S 705 mmHg 88%
22:00 +22°C° 0.3 mm 0 m/S 705 mmHg 89%
23:00 +24°C° 0.3 mm 1 m/S 705 mmHg 89%

9 März, Dienstag

Zeit Temperatur Niederschläge Wind Luftdruck Luftfeuchtigkeit
00:00 +23°C° 0.3 mm 1 m/S 705 mmHg 89%
01:00 +23°C° 0.2 mm 1 m/S 705 mmHg 89%
02:00 +23°C° 0.2 mm 2 m/S 705 mmHg 90%
03:00 +23°C° 0.2 mm 2 m/S 704 mmHg 90%
04:00 +21°C° 0.1 mm 2 m/S 704 mmHg 92%
05:00 +21°C° 0.1 mm 2 m/S 704 mmHg 93%
06:00 +21°C° 0.1 mm 2 m/S 705 mmHg 94%
07:00 +22°C° 0.3 mm 1 m/S 705 mmHg 94%
08:00 +22°C° 0.3 mm 1 m/S 706 mmHg 94%
09:00 +20°C° 0.3 mm 0 m/S 706 mmHg 93%
10:00 +21°C° 0.1 mm 0 m/S 706 mmHg 92%
11:00 +21°C° 0.1 mm 0 m/S 706 mmHg 90%
12:00 +22°C° 0.1 mm 0 m/S 705 mmHg 88%
13:00 +25°C° 0 mm 1 m/S 705 mmHg 81%
14:00 +27°C° 0 mm 1 m/S 704 mmHg 75%
15:00 +28°C° 0 mm 2 m/S 704 mmHg 68%
16:00 +27°C° 0.2 mm 2 m/S 704 mmHg 74%
17:00 +26°C° 0.2 mm 2 m/S 703 mmHg 80%
18:00 +25°C° 0.2 mm 1 m/S 703 mmHg 86%
19:00 +24°C° 0.6 mm 1 m/S 703 mmHg 88%
20:00 +23°C° 0.6 mm 1 m/S 704 mmHg 89%
21:00 +23°C° 0.6 mm 1 m/S 704 mmHg 91%
22:00 +23°C° 0.3 mm 1 m/S 704 mmHg 91%
23:00 +23°C° 0.3 mm 1 m/S 704 mmHg 92%
Mehr zeigen

Wir brauchen deine Erlaubnis

Meteoprog und unser Service Anbieter werden persönliche Daten aufbewahren, so wie Cookies, Geräte Bezeichnung oder ähnliche Technologien von deinem Gerät und Prozess, so wie Persönliche Daten Inhalte und Werbungen, genauso wie social Media und den Verkehr zu analysieren.

  • Aufbewahrung und/oder Zugang zu deiner Geräte Informationen.

    Cookies, Geräte Bezeichnung oder andere Informationen, können aufbewahrt oder Zugang zu deinem Gerät erhalten, für den Grund, der oben angegeben wird.

  • Personalisierte Werbung und Inhalte, Messungen, Einblick in das Publikum und Produkt Entwicklung.

    Werbungen und Inhalte können personalisiert werden, basierend auf ein Profil. Mehr Daten können besser personalisierte Werbungen und Inhalte hinzufügen. Werbung und Inhalte können gezeigt und gemessen werden. Einblicke über das Publikum, welche die Werbung gesehen haben und den Inhalt, können abgeleitet werden. So wie Daten können genutzt werden, um es zu verbessern oder die Benutzer Erfahrung zu verbessern das System und die Software.

Wenn du “Ich stimme zu” klickst, erlaubst du uns, die Cookies zu benutzen die Geräte Bezeichnung, den Web oder ähnliche Technologien zu benutzen. Deine Settings, können in deinem Gerät bei deinem Browser geändert werden.

Für den bestimmten Zweck, berechtigten Interessen beruhen darauf, mehr als auf den Inhalt. Du kannst mehr darüber in unseren Privaten und Cookie Politik lesen.